Home   Weather   Yokohama   Past weeks

Flag for Japan Past Weather in Yokohama, Japan — Yesterday and Last 2 Weeks

Now
73 °F

Passing clouds.


Feels Like: 76 °F
Forecast: 67 / 70 °F
Wind: 7 mph from South

Location: Tokyo International Airport

Current Time: Sep 30, 2016 at 8:55:20 PM

Latest Report: Sep 30, 2016 at 8:30 PM


Visibility: N/A

Pressure: 30.04 "Hg

Humidity: 65%

Dew Point: 61 °F

Location of YokohamaLocation

Past Weather in Yokohama — Graph

°F

Yokohama Temperature Yesterday

Maximum temperature yesterday: 82 °F (at 10:00 AM)
Minimum temperature yesterday: 73 °F (at 10:00 PM)
Average temperature yesterday: 77 °F

High & Low Weather Summary for the Past Weeks

 TemperatureHumidityPressure
High88 °F (Sep 28, 11:00 AM)100% (Sep 17, 2:30 AM)30.15 "Hg (Sep 17, 2:30 AM)
Low66 °F (Sep 20, 7:30 PM)57% (Sep 30, 12:30 PM)29.68 "Hg (Sep 18, 3:00 PM)
Average74 °F91%29.95 "Hg
* Reported Sep 15 7:00 PM — Sep 30 7:30 PM, Yokohama, Weather by CustomWeather, © 2016

Note: Actual official high and low records may vary slightly from our data, if they occured in-between our weather recording intervals... More about our weather records

Advertising

Yokohama Weather History for the Previous 24 Hours

Scroll right to see more
 ConditionsComfort  
Time TempWeatherWind HumidityBarometerVisibility
7:30 PM
Fri, Sep 30
72 °FPassing clouds.9 mph69%30.04 "HgN/A
7:00 PM72 °FPassing clouds.9 mph69%30.01 "HgN/A
6:30 PM72 °FPassing clouds.9 mph65%30.01 "HgN/A
6:00 PM72 °FPassing clouds.10 mph69%30.01 "HgN/A
5:30 PM72 °FPartly cloudy.8 mph69%30.01 "HgN/A
5:00 PM72 °FPartly sunny.10 mph65%29.98 "HgN/A
4:30 PM72 °FPartly sunny.10 mph65%29.98 "HgN/A
4:00 PM73 °FBroken clouds.9 mph65%29.98 "HgN/A
3:30 PM73 °FPartly sunny.9 mph61%30.01 "HgN/A
3:00 PM73 °FBroken clouds.7 mph61%29.98 "HgN/A
2:30 PM73 °FBroken clouds.5 mph61%29.98 "HgN/A
2:00 PM73 °FPartly sunny.5 mph61%29.98 "HgN/A
1:30 PM73 °FPartly sunny.7 mph61%29.98 "HgN/A
1:00 PM73 °FPartly sunny.6 mph57%30.01 "HgN/A
12:30 PM73 °FPartly sunny.6 mph57%30.01 "HgN/A
12:00 PM72 °FPartly sunny.6 mph61%30.04 "HgN/A
11:30 AM72 °FBroken clouds.8 mph61%30.04 "HgN/A
11:00 AM72 °FBroken clouds.8 mph65%30.07 "HgN/A
10:30 AM72 °FBroken clouds.10 mph65%30.07 "HgN/A
10:00 AM72 °FBroken clouds.10 mph65%30.07 "HgN/A
9:30 AM70 °FPartly sunny.10 mph64%30.07 "HgN/A
9:00 AM70 °FPartly sunny.13 mph64%30.07 "HgN/A
8:30 AM70 °FPartly sunny.14 mph64%30.07 "HgN/A
8:00 AM70 °FPartly sunny.14 mph64%30.07 "HgN/A
7:30 AM70 °FPartly sunny.14 mph64%30.07 "HgN/A
7:00 AM70 °FPartly sunny.14 mph69%30.07 "HgN/A
6:30 AM70 °FPartly sunny.14 mph69%30.04 "HgN/A
6:00 AM70 °FPartly sunny.15 mph69%30.04 "HgN/A
5:30 AM70 °FPassing clouds.12 mph69%30.01 "HgN/A
5:00 AM70 °FPassing clouds.13 mph69%30.01 "HgN/A
4:30 AM70 °FPassing clouds.16 mph73%29.98 "HgN/A
4:00 AM72 °FPassing clouds.14 mph69%29.98 "HgN/A
3:30 AM72 °FPassing clouds.14 mph69%29.98 "HgN/A
3:00 AM72 °FPassing clouds.13 mph73%29.98 "HgN/A
2:30 AM70 °FPassing clouds.10 mph83%29.95 "HgN/A
2:00 AM70 °FPassing clouds.13 mph88%29.95 "HgN/A
1:30 AM70 °FLight rain. Passing clouds.9 mph83%29.98 "HgN/A
1:00 AM70 °FLight rain. Passing clouds.12 mph83%29.98 "HgN/A
12:30 AM73 °FLight rain. Partly cloudy.17 mph78%29.95 "HgN/A
12:00 AM73 °FLight rain. Passing clouds.15 mph83%29.95 "HgN/A
11:30 PM
Thu, Sep 29
73 °FLight rain. Passing clouds.14 mph83%29.95 "HgN/A
11:00 PM73 °FPassing clouds.14 mph83%29.92 "HgN/A
10:30 PM73 °FPassing clouds.14 mph89%29.92 "HgN/A
10:00 PM73 °FPassing clouds.13 mph89%29.92 "HgN/A
9:30 PM75 °FScattered showers. Passing clouds.13 mph83%29.92 "HgN/A
9:00 PM75 °FSprinkles. Partly cloudy.12 mph83%29.92 "HgN/A
8:30 PM75 °FPartly cloudy.10 mph83%29.92 "HgN/A
8:00 PM75 °FLight rain. Passing clouds.9 mph83%29.89 "HgN/A
Weather by CustomWeather, © 2016

See weather overviewHow to use our weather pages